Weather History for KMWM - May, 2013

Change the Weather History Date:

Thursday, May 23, 2013

  Actual Average Record
Temperature  
Mean Temperature 52 °F -  
Max Temperature 62 °F 73 °F 91 °F (1950)
Min Temperature 42 °F 50 °F 34 °F (1958)
Degree Days  
Heating Degree Days 13    
Growing Degree Days 2 (Base 50)    
Moisture  
Dew Point 38 °F    
Average Humidity 62    
Maximum Humidity 93    
Minimum Humidity 30    
Precipitation  
Precipitation 0.00 in - - ()
Sea Level Pressure  
Sea Level Pressure 30.21 in    
Wind  
Wind Speed 12 mph (NNE)    
Max Wind Speed 17 mph    
Max Gust Speed 23 mph    
Visibility 10 miles    
Events      
Averages and records for this station are not official NWS values.
T = Trace of Precipitation, MM = Missing Value Source: NWS Daily Summary

Daily Weather History Graph

Daily Weather History Graph

Search for Another Location

Airport or City:

Trip Planner

Search our weather history database for the weather conditions in past years. The results will help you decide how hot, cold, wet, or windy it might be!

Date:

Astronomy

May. 23, 2013 Rise Set
Actual Time 5:46 AM CDT 8:48 PM CDT
Civil Twilight 5:12 AM CDT 9:22 PM CDT
Nautical Twilight 4:28 AM CDT 10:06 PM CDT
Astronomical Twilight 3:36 AM CDT 10:59 PM CDT
Moon 7:19 PM CDT (5/23) 4:35 AM CDT (5/23)
Length of Visible Light 16h 10m
Length of Day
15h 01m
Waxing Gibbous, 97% of the Moon is Illuminated
May 23
Waxing Gibbous
May 24
Full
May 31
Last Quarter
Jun 8
New
Jun 16
First Quarter

Hourly Weather History & Observations

Time (CDT) Temp. Windchill Dew Point Humidity Pressure Visibility Wind Dir Wind Speed Gust Speed Precip Events Conditions
12:12 AM 50.0 °F - 46.4 °F 87% 30.00 in 10.0 mi NNE 13.8 mph - N/A   Overcast
12:33 AM 51.8 °F - 46.4 °F 82% 30.01 in 10.0 mi NNE 9.2 mph - N/A   Overcast
12:52 AM 51.8 °F - 46.4 °F 82% 30.01 in 10.0 mi North 12.7 mph 18.4 mph N/A   Overcast
1:12 AM 50.0 °F - 46.4 °F 87% 30.02 in 10.0 mi North 10.4 mph - N/A   Overcast
1:33 AM 50.0 °F - 44.6 °F 82% 30.03 in 10.0 mi North 10.4 mph - N/A   Overcast
1:52 AM 50.0 °F - 44.6 °F 82% 30.03 in 10.0 mi NNE 10.4 mph - N/A   Mostly Cloudy
2:12 AM 48.2 °F - 44.6 °F 87% 30.04 in 10.0 mi North 9.2 mph - N/A   Scattered Clouds
2:33 AM 46.4 °F 41.1 °F 42.8 °F 87% 30.05 in 10.0 mi North 11.5 mph - N/A   Scattered Clouds
2:52 AM 46.4 °F 41.5 °F 42.8 °F 87% 30.06 in 10.0 mi North 10.4 mph - N/A   Clear
3:12 AM 44.6 °F 38.8 °F 42.8 °F 93% 30.07 in 10.0 mi North 11.5 mph - N/A   Clear
3:33 AM 44.6 °F 38.1 °F 42.8 °F 93% 30.07 in 10.0 mi North 13.8 mph - N/A   Clear
3:53 AM 44.6 °F 38.8 °F 42.8 °F 93% 30.09 in 10.0 mi North 11.5 mph - N/A   Clear
4:12 AM 44.6 °F 38.8 °F 41.0 °F 87% 30.10 in 10.0 mi North 11.5 mph - N/A   Clear
4:33 AM 44.6 °F 38.1 °F 41.0 °F 87% 30.11 in 10.0 mi North 13.8 mph - N/A   Clear
4:52 AM 44.6 °F 38.1 °F 41.0 °F 87% 30.12 in 10.0 mi North 13.8 mph - N/A   Clear
5:13 AM 44.6 °F 38.4 °F 41.0 °F 87% 30.13 in 10.0 mi North 12.7 mph - N/A   Clear
5:32 AM 42.8 °F 36.6 °F 41.0 °F 93% 30.14 in 10.0 mi North 11.5 mph - N/A   Clear
5:52 AM 42.8 °F 36.6 °F 41.0 °F 93% 30.15 in 10.0 mi North 11.5 mph - N/A   Clear
6:13 AM 42.8 °F 37.0 °F 41.0 °F 93% 30.16 in 10.0 mi North 10.4 mph - N/A   Clear
6:32 AM 44.6 °F 38.4 °F 41.0 °F 87% 30.16 in 10.0 mi North 12.7 mph - N/A   Clear
6:52 AM 44.6 °F 38.8 °F 41.0 °F 87% 30.17 in 10.0 mi NNE 11.5 mph - N/A   Clear
7:13 AM 46.4 °F 41.1 °F 42.8 °F 87% 30.18 in 10.0 mi North 11.5 mph - N/A   Clear
7:32 AM 46.4 °F 40.4 °F 42.8 °F 87% 30.18 in 10.0 mi North 13.8 mph - N/A   Clear
7:52 AM 46.4 °F 40.1 °F 42.8 °F 87% 30.20 in 10.0 mi North 15.0 mph - N/A   Clear
8:13 AM 48.2 °F - 42.8 °F 82% 30.21 in 10.0 mi North 15.0 mph - N/A   Clear
8:32 AM 48.2 °F - 42.8 °F 82% 30.22 in 10.0 mi North 15.0 mph - N/A   Clear
8:52 AM 50.0 °F - 42.8 °F 76% 30.23 in 10.0 mi North 12.7 mph - N/A   Clear
9:13 AM 51.8 °F - 42.8 °F 71% 30.23 in 10.0 mi North 13.8 mph - N/A   Clear
9:32 AM 51.8 °F - 42.8 °F 71% 30.23 in 10.0 mi North 16.1 mph 20.7 mph N/A   Clear
9:52 AM 53.6 °F - 42.8 °F 67% 30.24 in 10.0 mi NNE 13.8 mph 17.3 mph N/A   Clear
10:13 AM 53.6 °F - 39.2 °F 58% 30.24 in 10.0 mi NNE 11.5 mph 18.4 mph N/A   Clear
10:32 AM 53.6 °F - 42.8 °F 67% 30.25 in 10.0 mi North 12.7 mph - N/A   Clear
10:52 AM 53.6 °F - 42.8 °F 67% 30.26 in 10.0 mi North 12.7 mph 19.6 mph N/A   Clear
11:13 AM 55.4 °F - 42.8 °F 63% 30.26 in 10.0 mi North 13.8 mph - N/A   Clear
11:32 AM 55.4 °F - 42.8 °F 63% 30.26 in 10.0 mi North 15.0 mph - N/A   Clear
11:52 AM 57.2 °F - 41.0 °F 55% 30.26 in 10.0 mi NNE 12.7 mph 18.4 mph N/A   Clear
12:13 PM 57.2 °F - 42.8 °F 59% 30.26 in 10.0 mi NNE 11.5 mph 18.4 mph N/A   Clear
12:32 PM 59.0 °F - 39.2 °F 48% 30.26 in 10.0 mi North 16.1 mph 19.6 mph N/A   Clear
12:52 PM 60.8 °F - 35.6 °F 39% 30.26 in 10.0 mi North 16.1 mph 21.9 mph N/A   Clear
1:13 PM 60.8 °F - 35.6 °F 39% 30.26 in 10.0 mi NE 12.7 mph 20.7 mph N/A   Clear
1:32 PM 60.8 °F - 35.6 °F 39% 30.26 in 10.0 mi North 12.7 mph 21.9 mph N/A   Clear
1:52 PM 62.6 °F - 32.0 °F 32% 30.26 in 10.0 mi NNE 16.1 mph 21.9 mph N/A   Clear
2:13 PM 62.6 °F - 33.8 °F 34% 30.26 in 10.0 mi NE 10.4 mph 23.0 mph N/A   Clear
2:32 PM 62.6 °F - 32.0 °F 32% 30.26 in 10.0 mi North 17.3 mph 21.9 mph N/A   Clear
2:52 PM 62.6 °F - 30.2 °F 30% 30.26 in 10.0 mi NE 13.8 mph 20.7 mph N/A   Clear
3:13 PM 62.6 °F - 32.0 °F 32% 30.26 in 10.0 mi ENE 12.7 mph 20.7 mph N/A   Clear
3:32 PM 62.6 °F - 32.0 °F 32% 30.26 in 10.0 mi NNE 16.1 mph - N/A   Clear
3:52 PM 62.6 °F - 33.8 °F 34% 30.26 in 10.0 mi NNE 9.2 mph 18.4 mph N/A   Clear
4:13 PM 62.6 °F - 30.2 °F 30% 30.26 in 10.0 mi NE 12.7 mph 18.4 mph N/A   Clear
4:32 PM 62.6 °F - 30.2 °F 30% 30.25 in 10.0 mi NE 11.5 mph - N/A   Clear
4:52 PM 62.6 °F - 33.8 °F 34% 30.25 in 10.0 mi NE 11.5 mph 17.3 mph N/A   Clear
5:13 PM 62.6 °F - 32.0 °F 32% 30.26 in 10.0 mi NNE 13.8 mph 19.6 mph N/A   Clear
5:32 PM 62.6 °F - 30.2 °F 30% 30.26 in 10.0 mi ENE 12.7 mph 18.4 mph N/A   Clear
5:52 PM 62.6 °F - 30.2 °F 30% 30.26 in 10.0 mi NE 12.7 mph 19.6 mph N/A   Clear
6:13 PM 62.6 °F - 30.2 °F 30% 30.26 in 10.0 mi NE 9.2 mph 18.4 mph N/A   Clear
6:32 PM 62.6 °F - 30.2 °F 30% 30.26 in 10.0 mi ENE 10.4 mph - N/A   Clear
6:52 PM 62.6 °F - 32.0 °F 32% 30.26 in 10.0 mi NE 8.1 mph - N/A   Clear
7:13 PM 60.8 °F - 30.2 °F 31% 30.26 in 10.0 mi NE 11.5 mph - N/A   Clear
7:32 PM 60.8 °F - 32.0 °F 34% 30.26 in 10.0 mi East 6.9 mph - N/A   Clear
7:52 PM 60.8 °F - 33.8 °F 36% 30.26 in 10.0 mi ENE 6.9 mph - N/A   Clear
8:13 PM 57.2 °F - 33.8 °F 41% 30.26 in 10.0 mi East 9.2 mph 16.1 mph N/A   Clear
8:32 PM 55.4 °F - 35.6 °F 47% 30.26 in 10.0 mi ENE 6.9 mph - N/A   Clear
8:52 PM 53.6 °F - 35.6 °F 51% 30.27 in 10.0 mi ENE 6.9 mph - N/A   Clear
9:12 PM 53.6 °F - 37.4 °F 54% 30.27 in 10.0 mi ENE 4.6 mph - N/A   Clear
9:32 PM 51.8 °F - 37.4 °F 58% 30.28 in 10.0 mi East 4.6 mph - N/A   Clear
9:53 PM 48.2 °F - 37.4 °F 66% 30.29 in 10.0 mi East 5.8 mph - N/A   Clear
10:12 PM 48.2 °F - 35.6 °F 62% 30.30 in 10.0 mi ENE 5.8 mph - N/A   Clear
10:33 PM 48.2 °F - 37.4 °F 66% 30.30 in 10.0 mi East 4.6 mph - N/A   Clear
10:52 PM 48.2 °F - 37.4 °F 66% 30.31 in 10.0 mi East 5.8 mph - N/A   Clear
11:12 PM 48.2 °F - 37.4 °F 66% 30.31 in 10.0 mi East 4.6 mph - N/A   Clear
11:33 PM 48.2 °F - 37.4 °F 66% 30.32 in 10.0 mi ESE 3.5 mph - N/A   Clear
11:52 PM 48.2 °F - 37.4 °F 66% 30.32 in 10.0 mi East 3.5 mph - N/A   Clear